Regional Weather Roundup
Issued by NWS

Home | Current Version | Previous Version | Graphics & Text | Print | Product List | Glossary On
Versions: 1 2 3 4 5 6 7 8 9 10 11 12 13 14 15 16 17 18 19 20 21 22 23 24 25 26 27 28 29 30 31 32 33 34 35 36 37 38 39 40 41 42 43 44 45 46 47 48 49 50
000
ASUS43 KTOP 190408
RWRKS

WEATHER ROUNDUP FOR KANSAS
NATIONAL WEATHER SERVICE GOODLAND KS
1100 PM CDT THU SEP 18 2014

NOTE:  "FAIR" INDICATES FEW OR NO CLOUDS BELOW 12,000 FEET WITH NO
SIGNIFICANT WEATHER AND/OR OBSTRUCTIONS TO VISIBILITY.

KSZ001>006-013>018-027>032-041>047-190500-
NORTHWEST KANSAS

CITY           SKY/WX    TMP DP  RH WIND       PRES   REMARKS
GOODLAND       CLEAR     71  54  54 S14       29.94S
HAYS           CLEAR     72  61  68 SE9       29.92R
HILL CITY      CLEAR     70  64  81 SE3       29.90R
RUSSELL        CLEAR     71  60  68 SE16      29.92R
$$

KSZ061>065-074>080-084>089-190500-
SOUTHWEST KANSAS

CITY           SKY/WX    TMP DP  RH WIND       PRES   REMARKS
DODGE CITY     CLEAR     72  62  71 S13       29.97R
ELKHART          N/A     64  57  78 S8          N/A
GARDEN CITY    CLEAR     65  58  78 S7        29.96S
GREAT BEND     CLEAR     72  59  64 SE13      29.95R
LIBERAL        CLEAR     70  55  60 S9        30.00S
PRATT          CLEAR     72  57  60 SE14      29.98R
$$

KSZ066>073-081>083-090>101-190500-
SOUTHEAST KANSAS

CITY           SKY/WX    TMP DP  RH WIND       PRES   REMARKS
CHANUTE        CLEAR     66  64  93 E3        30.00S
COFFEYVILLE    CLEAR     68  64  87 E8        29.98R
HUTCHINSON     CLEAR     68  62  81 SE10      29.97S
MEDICINE LODGE   N/A     71  61  70 E9        29.97R
NEWTON         CLEAR     66  57  72 SE13      30.00S
PARSONS        CLEAR     67  64  90 CALM      30.00S
WICHITA INTL   CLEAR     69  63  81 SE9       29.97F
WICHITA JABRA  CLEAR     67  63  87 SE9       29.98S
WICHITA MCCONL CLEAR     68  68 100 E8        29.98S
WINFIELD       CLEAR     68  64  87 E9        29.99R
$$

KSZ007>012-019>026-033>040-048>060-102>105-190500-
NORTHEAST KANSAS

CITY           SKY/WX    TMP DP  RH WIND       PRES   REMARKS
CONCORDIA      CLOUDY    66  64  93 SE16G24   29.96S
EMPORIA        PTCLDY    64  63  96 SE8       30.00S
LAWRENCE       FOG       58  57  97 CALM      30.02S VSB 1/4
MANHATTAN      PTCLDY    67  62  84 E8        29.98S
MARYSVILLE     CLOUDY    63  61  94 S13       29.99R
OLATHE IND     CLEAR     62  61  96 SE5       30.02S
OLATHE EXE     CLEAR     62  61  96 SE5       30.02R
SALINA         MOCLDY    70  65  84 SE13      29.96S
TOPEKA BILLARD CLEAR     62  61  96 E5        30.01S FOG
TOPEKA FORBES  CLEAR     61  60  97 SE6       30.01S
$$


USA.gov is the U.S. government's official web portal to all federal, state and local government web resources and services.